Location: Newark
(44.6028°N, 124.0883°W)
Time: 04:52:33
(UTC+00:00)

Vanguard 1 Rocket - Pass Details

Date: 31 October 2019
Orbit: 651 x 4226 km, 34.3° (Epoch: 18 November)

Event Time Altitude Azimuth Distance (km) Brightness Sun altitude
Rises 21:18:16 0° 275° (W) 5,787 11.7 28.5°
Reaches altitude 10° 21:21:43 10° 268° (W) 5,187 11.6 28.3°
Maximum altitude 21:36:52 42° 205° (SSW) 4,487 12.9 27.2°
Drops below altitude 10° 21:59:18 10° 145° (SE) 7,424 12.4 25.2°
Sets 22:05:43 0° 140° (SE) 8,401 12.5 24.6°
